owner,sensor,date,latitude,longitude,sea_water_turbidity,qcFlag 
NERRS,ioos:station:NOAA.NERRS:marabwq:1,2015-01-01T00:45:00Z,27.9798,-97.0287,186.0,1111122 
NERRS,ioos:station:NOAA.NERRS:marabwq:1,2015-01-01T01:45:00Z,27.9798,-97.0287,174.0,1111122 
NERRS,ioos:station:NOAA.NERRS:marabwq:1,2015-01-01T02:45:00Z,27.9798,-97.0287,159.0,1111122 
NERRS,ioos:station:NOAA.NERRS:marabwq:1,2015-01-01T03:45:00Z,27.9798,-97.0287,171.0,1111122 
NERRS,ioos:station:NOAA.NERRS:marabwq:1,2015-01-01T04:45:00Z,27.9798,-97.0287,160.0,1111122 
NERRS,ioos:station:NOAA.NERRS:marabwq:1,2015-01-01T07:45:00Z,27.9798,-97.0287,156.0,1111122 
NERRS,ioos:station:NOAA.NERRS:marabwq:1,2015-01-01T08:45:00Z,27.9798,-97.0287,156.0,1111122 
NERRS,ioos:station:NOAA.NERRS:marabwq:1,2015-01-01T09:45:00Z,27.9798,-97.0287,148.0,1111122 
NERRS,ioos:station:NOAA.NERRS:marabwq:1,2015-01-01T11:45:00Z,27.9798,-97.0287,158.0,1111122 
NERRS,ioos:station:NOAA.NERRS:marabwq:1,2015-01-01T13:45:00Z,27.9798,-97.0287,156.0,1111122 
NERRS,ioos:station:NOAA.NERRS:marabwq:1,2015-01-01T14:45:00Z,27.9798,-97.0287,153.0,1111122 
NERRS,ioos:station:NOAA.NERRS:marabwq:1,2015-01-01T15:45:00Z,27.9798,-97.0287,152.0,1111122 
NERRS,ioos:station:NOAA.NERRS:marabwq:1,2015-01-01T19:45:00Z,27.9798,-97.0287,120.0,1111122 
NERRS,ioos:station:NOAA.NERRS:marabwq:1,2015-01-01T20:45:00Z,27.9798,-97.0287,107.0,1111122 
NERRS,ioos:station:NOAA.NERRS:marabwq:1,2015-01-01T21:45:00Z,27.9798,-97.0287,97.0,1111122 
NERRS,ioos:station:NOAA.NERRS:marabwq:1,2015-01-01T22:45:00Z,27.9798,-97.0287,84.0,1111122 
NERRS,ioos:station:NOAA.NERRS:marabwq:1,2015-01-01T23:45:00Z,27.9798,-97.0287,92.0,1111122 
NERRS,ioos:station:NOAA.NERRS:marabwq:1,2015-01-02T00:45:00Z,27.9798,-97.0287,87.0,1111122 
NERRS,ioos:station:NOAA.NERRS:marabwq:1,2015-01-02T01:45:00Z,27.9798,-97.0287,85.0,1111122 
NERRS,ioos:station:NOAA.NERRS:marabwq:1,2015-01-02T02:45:00Z,27.9798,-97.0287,80.0,1111122 
NERRS,ioos:station:NOAA.NERRS:marabwq:1,2015-01-02T03:45:00Z,27.9798,-97.0287,80.0,1111122 
NERRS,ioos:station:NOAA.NERRS:marabwq:1,2015-01-02T04:45:00Z,27.9798,-97.0287,59.0,1111122 
NERRS,ioos:station:NOAA.NERRS:marabwq:1,2015-01-02T05:45:00Z,27.9798,-97.0287,60.0,1111122 
NERRS,ioos:station:NOAA.NERRS:marabwq:1,2015-01-02T06:45:00Z,27.9798,-97.0287,42.0,1111122 
NERRS,ioos:station:NOAA.NERRS:marabwq:1,2015-01-02T08:45:00Z,27.9798,-97.0287,30.0,1111122 
NERRS,ioos:station:NOAA.NERRS:marabwq:1,2015-01-02T09:45:00Z,27.9798,-97.0287,30.0,1111122 
NERRS,ioos:station:NOAA.NERRS:marabwq:1,2015-01-02T10:45:00Z,27.9798,-97.0287,34.0,1111122 
NERRS,ioos:station:NOAA.NERRS:marabwq:1,2015-01-02T11:45:00Z,27.9798,-97.0287,38.0,1111122 
NERRS,ioos:station:NOAA.NERRS:marabwq:1,2015-01-02T12:45:00Z,27.9798,-97.0287,42.0,1111122 
NERRS,ioos:station:NOAA.NERRS:marabwq:1,2015-01-02T14:45:00Z,27.9798,-97.0287,38.0,1111122 
NERRS,ioos:station:NOAA.NERRS:marabwq:1,2015-01-02T15:45:00Z,27.9798,-97.0287,32.0,1111122 
NERRS,ioos:station:NOAA.NERRS:marabwq:1,2015-01-02T17:45:00Z,27.9798,-97.0287,25.0,1111122 
NERRS,ioos:station:NOAA.NERRS:marabwq:1,2015-01-02T18:45:00Z,27.9798,-97.0287,23.0,1111122 
NERRS,ioos:station:NOAA.NERRS:marabwq:1,2015-01-02T19:45:00Z,27.9798,-97.0287,25.0,1111122 
NERRS,ioos:station:NOAA.NERRS:marabwq:1,2015-01-02T22:45:00Z,27.9798,-97.0287,20.0,1111122 
NERRS,ioos:station:NOAA.NERRS:marabwq:1,2015-01-02T23:45:00Z,27.9798,-97.0287,18.0,1111122 
NERRS,ioos:station:NOAA.NERRS:marabwq:1,2015-01-03T00:45:00Z,27.9798,-97.0287,16.0,1111122 
NERRS,ioos:station:NOAA.NERRS:marabwq:1,2015-01-03T01:45:00Z,27.9798,-97.0287,15.0,1111122 
NERRS,ioos:station:NOAA.NERRS:marabwq:1,2015-01-03T03:45:00Z,27.9798,-97.0287,16.0,1111122 
NERRS,ioos:station:NOAA.NERRS:marabwq:1,2015-01-03T04:45:00Z,27.9798,-97.0287,15.0,1111122 
NERRS,ioos:station:NOAA.NERRS:marabwq:1,2015-01-03T05:45:00Z,27.9798,-97.0287,14.0,1111122 
NERRS,ioos:station:NOAA.NERRS:marabwq:1,2015-01-03T06:45:00Z,27.9798,-97.0287,16.0,1111122 
NERRS,ioos:station:NOAA.NERRS:marabwq:1,2015-01-03T08:45:00Z,27.9798,-97.0287,18.0,1111122 
NERRS,ioos:station:NOAA.NERRS:marabwq:1,2015-01-03T09:45:00Z,27.9798,-97.0287,20.0,1111122 
NERRS,ioos:station:NOAA.NERRS:marabwq:1,2015-01-03T12:45:00Z,27.9798,-97.0287,22.0,1111122 
NERRS,ioos:station:NOAA.NERRS:marabwq:1,2015-01-03T14:45:00Z,27.9798,-97.0287,22.0,1111122 
NERRS,ioos:station:NOAA.NERRS:marabwq:1,2015-01-03T15:45:00Z,27.9798,-97.0287,16.0,1111122 
NERRS,ioos:station:NOAA.NERRS:marabwq:1,2015-01-03T16:45:00Z,27.9798,-97.0287,17.0,1111122 
NERRS,ioos:station:NOAA.NERRS:marabwq:1,2015-01-03T17:45:00Z,27.9798,-97.0287,12.0,1111122 
NERRS,ioos:station:NOAA.NERRS:marabwq:1,2015-01-03T19:45:00Z,27.9798,-97.0287,10.0,1111122 
NERRS,ioos:station:NOAA.NERRS:marabwq:1,2015-01-03T20:45:00Z,27.9798,-97.0287,9.0,1111122 
NERRS,ioos:station:NOAA.NERRS:marabwq:1,2015-01-03T21:45:00Z,27.9798,-97.0287,14.0,1111122 
NERRS,ioos:station:NOAA.NERRS:marabwq:1,2015-01-03T22:45:00Z,27.9798,-97.0287,11.0,1111122 
NERRS,ioos:station:NOAA.NERRS:marabwq:1,2015-01-03T23:45:00Z,27.9798,-97.0287,12.0,1111122 
NERRS,ioos:station:NOAA.NERRS:marabwq:1,2015-01-04T00:45:00Z,27.9798,-97.0287,14.0,1111122 
NERRS,ioos:station:NOAA.NERRS:marabwq:1,2015-01-04T01:45:00Z,27.9798,-97.0287,12.0,1111122 
NERRS,ioos:station:NOAA.NERRS:marabwq:1,2015-01-04T02:45:00Z,27.9798,-97.0287,8.0,1111122 
NERRS,ioos:station:NOAA.NERRS:marabwq:1,2015-01-04T03:45:00Z,27.9798,-97.0287,8.0,1111122 
NERRS,ioos:station:NOAA.NERRS:marabwq:1,2015-01-04T04:45:00Z,27.9798,-97.0287,9.0,1111122 
NERRS,ioos:station:NOAA.NERRS:marabwq:1,2015-01-04T05:45:00Z,27.9798,-97.0287,11.0,1111122 
NERRS,ioos:station:NOAA.NERRS:marabwq:1,2015-01-04T06:45:00Z,27.9798,-97.0287,10.0,1111122 
NERRS,ioos:station:NOAA.NERRS:marabwq:1,2015-01-04T07:45:00Z,27.9798,-97.0287,11.0,1111122 
NERRS,ioos:station:NOAA.NERRS:marabwq:1,2015-01-04T09:45:00Z,27.9798,-97.0287,10.0,1111122 
NERRS,ioos:station:NOAA.NERRS:marabwq:1,2015-01-04T10:45:00Z,27.9798,-97.0287,9.0,1111122 
NERRS,ioos:station:NOAA.NERRS:marabwq:1,2015-01-04T11:45:00Z,27.9798,-97.0287,7.0,1111122 
NERRS,ioos:station:NOAA.NERRS:marabwq:1,2015-01-04T12:45:00Z,27.9798,-97.0287,7.0,1111122 
NERRS,ioos:station:NOAA.NERRS:marabwq:1,2015-01-04T13:45:00Z,27.9798,-97.0287,38.0,1111122 
NERRS,ioos:station:NOAA.NERRS:marabwq:1,2015-01-04T14:45:00Z,27.9798,-97.0287,95.0,1111122 
NERRS,ioos:station:NOAA.NERRS:marabwq:1,2015-01-04T15:45:00Z,27.9798,-97.0287,128.0,1111122 
NERRS,ioos:station:NOAA.NERRS:marabwq:1,2015-01-04T16:45:00Z,27.9798,-97.0287,157.0,1111122 
NERRS,ioos:station:NOAA.NERRS:marabwq:1,2015-01-04T17:45:00Z,27.9798,-97.0287,138.0,1111122 
NERRS,ioos:station:NOAA.NERRS:marabwq:1,2015-01-04T19:45:00Z,27.9798,-97.0287,82.0,1111122 
NERRS,ioos:station:NOAA.NERRS:marabwq:1,2015-01-04T21:45:00Z,27.9798,-97.0287,48.0,1111122 
NERRS,ioos:station:NOAA.NERRS:marabwq:1,2015-01-05T00:45:00Z,27.9798,-97.0287,43.0,1111122 
NERRS,ioos:station:NOAA.NERRS:marabwq:1,2015-01-05T01:45:00Z,27.9798,-97.0287,66.0,1111122 
NERRS,ioos:station:NOAA.NERRS:marabwq:1,2015-01-05T03:45:00Z,27.9798,-97.0287,80.0,1111122 
NERRS,ioos:station:NOAA.NERRS:marabwq:1,2015-01-05T04:45:00Z,27.9798,-97.0287,111.0,1111122 
NERRS,ioos:station:NOAA.NERRS:marabwq:1,2015-01-05T05:45:00Z,27.9798,-97.0287,142.0,1111122 
NERRS,ioos:station:NOAA.NERRS:marabwq:1,2015-01-05T06:45:00Z,27.9798,-97.0287,155.0,1111122 
NERRS,ioos:station:NOAA.NERRS:marabwq:1,2015-01-05T07:45:00Z,27.9798,-97.0287,147.0,1111122 
NERRS,ioos:station:NOAA.NERRS:marabwq:1,2015-01-05T08:45:00Z,27.9798,-97.0287,154.0,1111122 
NERRS,ioos:station:NOAA.NERRS:marabwq:1,2015-01-05T09:45:00Z,27.9798,-97.0287,144.0,1111122 
NERRS,ioos:station:NOAA.NERRS:marabwq:1,2015-01-05T10:45:00Z,27.9798,-97.0287,141.0,1111122 
NERRS,ioos:station:NOAA.NERRS:marabwq:1,2015-01-05T11:45:00Z,27.9798,-97.0287,141.0,1111122 
NERRS,ioos:station:NOAA.NERRS:marabwq:1,2015-01-05T12:45:00Z,27.9798,-97.0287,134.0,1111122 
NERRS,ioos:station:NOAA.NERRS:marabwq:1,2015-01-05T13:45:00Z,27.9798,-97.0287,115.0,1111122 
NERRS,ioos:station:NOAA.NERRS:marabwq:1,2015-01-05T14:45:00Z,27.9798,-97.0287,114.0,1111122 
NERRS,ioos:station:NOAA.NERRS:marabwq:1,2015-01-05T15:45:00Z,27.9798,-97.0287,118.0,1111122 
NERRS,ioos:station:NOAA.NERRS:marabwq:1,2015-01-05T17:45:00Z,27.9798,-97.0287,79.0,1111122 
NERRS,ioos:station:NOAA.NERRS:marabwq:1,2015-01-05T18:45:00Z,27.9798,-97.0287,48.0,1111122 
NERRS,ioos:station:NOAA.NERRS:marabwq:1,2015-01-05T19:45:00Z,27.9798,-97.0287,36.0,1111122 
NERRS,ioos:station:NOAA.NERRS:marabwq:1,2015-01-05T20:45:00Z,27.9798,-97.0287,34.0,1111122 
NERRS,ioos:station:NOAA.NERRS:marabwq:1,2015-01-05T21:45:00Z,27.9798,-97.0287,31.0,1111122 
NERRS,ioos:station:NOAA.NERRS:marabwq:1,2015-01-05T23:45:00Z,27.9798,-97.0287,17.0,1111122 
NERRS,ioos:station:NOAA.NERRS:marabwq:1,2015-01-06T00:45:00Z,27.9798,-97.0287,15.0,1111122 
NERRS,ioos:station:NOAA.NERRS:marabwq:1,2015-01-06T01:45:00Z,27.9798,-97.0287,12.0,1111122 
NERRS,ioos:station:NOAA.NERRS:marabwq:1,2015-01-06T02:45:00Z,27.9798,-97.0287,12.0,1111122 
NERRS,ioos:station:NOAA.NERRS:marabwq:1,2015-01-06T03:45:00Z,27.9798,-97.0287,12.0,1111122 
NERRS,ioos:station:NOAA.NERRS:marabwq:1,2015-01-06T04:45:00Z,27.9798,-97.0287,13.0,1111122 
NERRS,ioos:station:NOAA.NERRS:marabwq:1,2015-01-06T05:45:00Z,27.9798,-97.0287,10.0,1111122 
NERRS,ioos:station:NOAA.NERRS:marabwq:1,2015-01-06T06:45:00Z,27.9798,-97.0287,10.0,1111122 
NERRS,ioos:station:NOAA.NERRS:marabwq:1,2015-01-06T07:45:00Z,27.9798,-97.0287,9.0,1111122 
NERRS,ioos:station:NOAA.NERRS:marabwq:1,2015-01-06T08:45:00Z,27.9798,-97.0287,11.0,1111122 
NERRS,ioos:station:NOAA.NERRS:marabwq:1,2015-01-06T09:45:00Z,27.9798,-97.0287,15.0,1111122 
NERRS,ioos:station:NOAA.NERRS:marabwq:1,2015-01-06T12:45:00Z,27.9798,-97.0287,14.0,1111122 
NERRS,ioos:station:NOAA.NERRS:marabwq:1,2015-01-06T13:45:00Z,27.9798,-97.0287,10.0,1111122 
NERRS,ioos:station:NOAA.NERRS:marabwq:1,2015-01-06T14:45:00Z,27.9798,-97.0287,13.0,1111122 
NERRS,ioos:station:NOAA.NERRS:marabwq:1,2015-01-06T15:45:00Z,27.9798,-97.0287,8.0,1111122 
NERRS,ioos:station:NOAA.NERRS:marabwq:1,2015-01-06T17:45:00Z,27.9798,-97.0287,8.0,1111122 
NERRS,ioos:station:NOAA.NERRS:marabwq:1,2015-01-06T18:45:00Z,27.9798,-97.0287,7.0,1111122 
NERRS,ioos:station:NOAA.NERRS:marabwq:1,2015-01-06T19:45:00Z,27.9798,-97.0287,4.0,1111122 
NERRS,ioos:station:NOAA.NERRS:marabwq:1,2015-01-06T20:45:00Z,27.9798,-97.0287,6.0,1111122 
NERRS,ioos:station:NOAA.NERRS:marabwq:1,2015-01-06T21:45:00Z,27.9798,-97.0287,5.0,1111122 
NERRS,ioos:station:NOAA.NERRS:marabwq:1,2015-01-06T23:45:00Z,27.9798,-97.0287,5.0,1111122 
NERRS,ioos:station:NOAA.NERRS:marabwq:1,2015-01-07T00:45:00Z,27.9798,-97.0287,4.0,1111122 
NERRS,ioos:station:NOAA.NERRS:marabwq:1,2015-01-07T02:45:00Z,27.9798,-97.0287,5.0,1111122 
NERRS,ioos:station:NOAA.NERRS:marabwq:1,2015-01-07T03:45:00Z,27.9798,-97.0287,5.0,1111122 
NERRS,ioos:station:NOAA.NERRS:marabwq:1,2015-01-07T04:45:00Z,27.9798,-97.0287,5.0,1111122 
NERRS,ioos:station:NOAA.NERRS:marabwq:1,2015-01-07T05:45:00Z,27.9798,-97.0287,5.0,1111122 
NERRS,ioos:station:NOAA.NERRS:marabwq:1,2015-01-07T06:45:00Z,27.9798,-97.0287,7.0,1111122 
NERRS,ioos:station:NOAA.NERRS:marabwq:1,2015-01-07T07:45:00Z,27.9798,-97.0287,4.0,1111122 
NERRS,ioos:station:NOAA.NERRS:marabwq:1,2015-01-07T08:45:00Z,27.9798,-97.0287,4.0,1111122 
NERRS,ioos:station:NOAA.NERRS:marabwq:1,2015-01-07T09:45:00Z,27.9798,-97.0287,4.0,1111122 
NERRS,ioos:station:NOAA.NERRS:marabwq:1,2015-01-07T10:45:00Z,27.9798,-97.0287,4.0,1111122 
NERRS,ioos:station:NOAA.NERRS:marabwq:1,2015-01-07T11:45:00Z,27.9798,-97.0287,6.0,1111122 
NERRS,ioos:station:NOAA.NERRS:marabwq:1,2015-01-07T12:45:00Z,27.9798,-97.0287,7.0,1111122 
NERRS,ioos:station:NOAA.NERRS:marabwq:1,2015-01-07T14:45:00Z,27.9798,-97.0287,6.0,1111122 
NERRS,ioos:station:NOAA.NERRS:marabwq:1,2015-01-07T17:45:00Z,27.9798,-97.0287,4.0,1111122 
NERRS,ioos:station:NOAA.NERRS:marabwq:1,2015-01-07T18:45:00Z,27.9798,-97.0287,2.0,1111122 
NERRS,ioos:station:NOAA.NERRS:marabwq:1,2015-01-07T19:45:00Z,27.9798,-97.0287,2.0,1111122 
NERRS,ioos:station:NOAA.NERRS:marabwq:1,2015-01-07T20:45:00Z,27.9798,-97.0287,3.0,1111122 
NERRS,ioos:station:NOAA.NERRS:marabwq:1,2015-01-07T21:45:00Z,27.9798,-97.0287,7.0,1111122 
NERRS,ioos:station:NOAA.NERRS:marabwq:1,2015-01-07T22:45:00Z,27.9798,-97.0287,33.0,1111122 
NERRS,ioos:station:NOAA.NERRS:marabwq:1,2015-01-07T23:45:00Z,27.9798,-97.0287,73.0,1111122 
NERRS,ioos:station:NOAA.NERRS:marabwq:1,2015-01-08T01:45:00Z,27.9798,-97.0287,93.0,1111122 
NERRS,ioos:station:NOAA.NERRS:marabwq:1,2015-01-08T03:45:00Z,27.9798,-97.0287,121.0,1111122 
NERRS,ioos:station:NOAA.NERRS:marabwq:1,2015-01-08T04:45:00Z,27.9798,-97.0287,114.0,1111122 
NERRS,ioos:station:NOAA.NERRS:marabwq:1,2015-01-08T06:45:00Z,27.9798,-97.0287,107.0,1111122 
NERRS,ioos:station:NOAA.NERRS:marabwq:1,2015-01-08T07:45:00Z,27.9798,-97.0287,109.0,1111122 
NERRS,ioos:station:NOAA.NERRS:marabwq:1,2015-01-08T08:45:00Z,27.9798,-97.0287,106.0,1111122 
NERRS,ioos:station:NOAA.NERRS:marabwq:1,2015-01-08T09:45:00Z,27.9798,-97.0287,109.0,1111122 
NERRS,ioos:station:NOAA.NERRS:marabwq:1,2015-01-08T10:45:00Z,27.9798,-97.0287,109.0,1111122 
NERRS,ioos:station:NOAA.NERRS:marabwq:1,2015-01-08T13:45:00Z,27.9798,-97.0287,107.0,1111122 
NERRS,ioos:station:NOAA.NERRS:marabwq:1,2015-01-08T14:45:00Z,27.9798,-97.0287,95.0,1111122 
NERRS,ioos:station:NOAA.NERRS:marabwq:1,2015-01-08T15:45:00Z,27.9798,-97.0287,82.0,1111122 
NERRS,ioos:station:NOAA.NERRS:marabwq:1,2015-01-08T16:45:00Z,27.9798,-97.0287,64.0,1111122 
NERRS,ioos:station:NOAA.NERRS:marabwq:1,2015-01-08T17:45:00Z,27.9798,-97.0287,60.0,1111122 
NERRS,ioos:station:NOAA.NERRS:marabwq:1,2015-01-08T18:45:00Z,27.9798,-97.0287,38.0,1111122 
NERRS,ioos:station:NOAA.NERRS:marabwq:1,2015-01-08T19:45:00Z,27.9798,-97.0287,39.0,1111122 
NERRS,ioos:station:NOAA.NERRS:marabwq:1,2015-01-08T21:45:00Z,27.9798,-97.0287,20.0,1111122 
NERRS,ioos:station:NOAA.NERRS:marabwq:1,2015-01-08T23:45:00Z,27.9798,-97.0287,18.0,1111122 
NERRS,ioos:station:NOAA.NERRS:marabwq:1,2015-01-09T00:45:00Z,27.9798,-97.0287,27.0,1111122 
NERRS,ioos:station:NOAA.NERRS:marabwq:1,2015-01-09T01:45:00Z,27.9798,-97.0287,21.0,1111122 
NERRS,ioos:station:NOAA.NERRS:marabwq:1,2015-01-09T02:45:00Z,27.9798,-97.0287,27.0,1111122 
NERRS,ioos:station:NOAA.NERRS:marabwq:1,2015-01-09T03:45:00Z,27.9798,-97.0287,31.0,1111122 
NERRS,ioos:station:NOAA.NERRS:marabwq:1,2015-01-09T04:45:00Z,27.9798,-97.0287,38.0,1111122 
NERRS,ioos:station:NOAA.NERRS:marabwq:1,2015-01-09T06:45:00Z,27.9798,-97.0287,38.0,1111122 
NERRS,ioos:station:NOAA.NERRS:marabwq:1,2015-01-09T07:45:00Z,27.9798,-97.0287,53.0,1111122 
NERRS,ioos:station:NOAA.NERRS:marabwq:1,2015-01-09T08:45:00Z,27.9798,-97.0287,62.0,1111122 
NERRS,ioos:station:NOAA.NERRS:marabwq:1,2015-01-09T09:45:00Z,27.9798,-97.0287,71.0,1111122 
NERRS,ioos:station:NOAA.NERRS:marabwq:1,2015-01-09T10:45:00Z,27.9798,-97.0287,77.0,1111122 
NERRS,ioos:station:NOAA.NERRS:marabwq:1,2015-01-09T11:45:00Z,27.9798,-97.0287,83.0,1111122 
NERRS,ioos:station:NOAA.NERRS:marabwq:1,2015-01-09T12:45:00Z,27.9798,-97.0287,82.0,1111122 
NERRS,ioos:station:NOAA.NERRS:marabwq:1,2015-01-09T13:45:00Z,27.9798,-97.0287,92.0,1111122 
NERRS,ioos:station:NOAA.NERRS:marabwq:1,2015-01-09T14:45:00Z,27.9798,-97.0287,109.0,1111122 
NERRS,ioos:station:NOAA.NERRS:marabwq:1,2015-01-09T15:45:00Z,27.9798,-97.0287,115.0,1111122 
NERRS,ioos:station:NOAA.NERRS:marabwq:1,2015-01-09T16:45:00Z,27.9798,-97.0287,139.0,1111122 
NERRS,ioos:station:NOAA.NERRS:marabwq:1,2015-01-09T17:45:00Z,27.9798,-97.0287,139.0,1111122 
NERRS,ioos:station:NOAA.NERRS:marabwq:1,2015-01-09T18:45:00Z,27.9798,-97.0287,124.0,1111122 
NERRS,ioos:station:NOAA.NERRS:marabwq:1,2015-01-09T20:45:00Z,27.9798,-97.0287,124.0,1111122 
NERRS,ioos:station:NOAA.NERRS:marabwq:1,2015-01-09T21:45:00Z,27.9798,-97.0287,131.0,1111122 
NERRS,ioos:station:NOAA.NERRS:marabwq:1,2015-01-09T22:45:00Z,27.9798,-97.0287,137.0,1111122 
NERRS,ioos:station:NOAA.NERRS:marabwq:1,2015-01-10T00:45:00Z,27.9798,-97.0287,135.0,1111122 
NERRS,ioos:station:NOAA.NERRS:marabwq:1,2015-01-10T01:45:00Z,27.9798,-97.0287,144.0,1111122 
NERRS,ioos:station:NOAA.NERRS:marabwq:1,2015-01-10T02:45:00Z,27.9798,-97.0287,150.0,1111122 
NERRS,ioos:station:NOAA.NERRS:marabwq:1,2015-01-10T03:45:00Z,27.9798,-97.0287,155.0,1111122 
NERRS,ioos:station:NOAA.NERRS:marabwq:1,2015-01-10T04:45:00Z,27.9798,-97.0287,148.0,1111122 
NERRS,ioos:station:NOAA.NERRS:marabwq:1,2015-01-10T05:45:00Z,27.9798,-97.0287,144.0,1111122 
NERRS,ioos:station:NOAA.NERRS:marabwq:1,2015-01-10T06:45:00Z,27.9798,-97.0287,141.0,1111122 
NERRS,ioos:station:NOAA.NERRS:marabwq:1,2015-01-10T07:45:00Z,27.9798,-97.0287,137.0,1111122 
NERRS,ioos:station:NOAA.NERRS:marabwq:1,2015-01-10T11:45:00Z,27.9798,-97.0287,124.0,1111122 
NERRS,ioos:station:NOAA.NERRS:marabwq:1,2015-01-10T12:45:00Z,27.9798,-97.0287,118.0,1111122 
NERRS,ioos:station:NOAA.NERRS:marabwq:1,2015-01-10T13:45:00Z,27.9798,-97.0287,118.0,1111122 
NERRS,ioos:station:NOAA.NERRS:marabwq:1,2015-01-10T14:45:00Z,27.9798,-97.0287,121.0,1111122 
NERRS,ioos:station:NOAA.NERRS:marabwq:1,2015-01-10T16:45:00Z,27.9798,-97.0287,115.0,1111122 
NERRS,ioos:station:NOAA.NERRS:marabwq:1,2015-01-10T18:45:00Z,27.9798,-97.0287,144.0,1111122 
NERRS,ioos:station:NOAA.NERRS:marabwq:1,2015-01-10T20:45:00Z,27.9798,-97.0287,164.0,1111122 
NERRS,ioos:station:NOAA.NERRS:marabwq:1,2015-01-10T21:45:00Z,27.9798,-97.0287,179.0,1111122 
NERRS,ioos:station:NOAA.NERRS:marabwq:1,2015-01-10T22:45:00Z,27.9798,-97.0287,163.0,1111122 
NERRS,ioos:station:NOAA.NERRS:marabwq:1,2015-01-11T01:45:00Z,27.9798,-97.0287,188.0,1111122 
NERRS,ioos:station:NOAA.NERRS:marabwq:1,2015-01-11T02:45:00Z,27.9798,-97.0287,176.0,1111122 
NERRS,ioos:station:NOAA.NERRS:marabwq:1,2015-01-11T03:45:00Z,27.9798,-97.0287,159.0,1111122 
NERRS,ioos:station:NOAA.NERRS:marabwq:1,2015-01-11T04:45:00Z,27.9798,-97.0287,129.0,1111122 
NERRS,ioos:station:NOAA.NERRS:marabwq:1,2015-01-11T06:45:00Z,27.9798,-97.0287,92.0,1111122 
NERRS,ioos:station:NOAA.NERRS:marabwq:1,2015-01-11T07:45:00Z,27.9798,-97.0287,65.0,1111122 
NERRS,ioos:station:NOAA.NERRS:marabwq:1,2015-01-11T09:45:00Z,27.9798,-97.0287,60.0,1111122 
NERRS,ioos:station:NOAA.NERRS:marabwq:1,2015-01-11T10:45:00Z,27.9798,-97.0287,58.0,1111122 
NERRS,ioos:station:NOAA.NERRS:marabwq:1,2015-01-11T12:45:00Z,27.9798,-97.0287,47.0,1111122 
NERRS,ioos:station:NOAA.NERRS:marabwq:1,2015-01-11T13:45:00Z,27.9798,-97.0287,40.0,1111122 
NERRS,ioos:station:NOAA.NERRS:marabwq:1,2015-01-11T14:45:00Z,27.9798,-97.0287,32.0,1111122 
NERRS,ioos:station:NOAA.NERRS:marabwq:1,2015-01-11T15:45:00Z,27.9798,-97.0287,30.0,1111122 
NERRS,ioos:station:NOAA.NERRS:marabwq:1,2015-01-11T16:45:00Z,27.9798,-97.0287,27.0,1111122 
NERRS,ioos:station:NOAA.NERRS:marabwq:1,2015-01-11T17:45:00Z,27.9798,-97.0287,24.0,1111122 
NERRS,ioos:station:NOAA.NERRS:marabwq:1,2015-01-11T18:45:00Z,27.9798,-97.0287,25.0,1111122 
NERRS,ioos:station:NOAA.NERRS:marabwq:1,2015-01-11T19:45:00Z,27.9798,-97.0287,16.0,1111122 
NERRS,ioos:station:NOAA.NERRS:marabwq:1,2015-01-11T22:45:00Z,27.9798,-97.0287,14.0,1111122 
NERRS,ioos:station:NOAA.NERRS:marabwq:1,2015-01-11T23:45:00Z,27.9798,-97.0287,11.0,1111122 
NERRS,ioos:station:NOAA.NERRS:marabwq:1,2015-01-12T00:45:00Z,27.9798,-97.0287,10.0,1111122 
NERRS,ioos:station:NOAA.NERRS:marabwq:1,2015-01-12T01:45:00Z,27.9798,-97.0287,10.0,1111122 
NERRS,ioos:station:NOAA.NERRS:marabwq:1,2015-01-12T02:45:00Z,27.9798,-97.0287,9.0,1111122 
NERRS,ioos:station:NOAA.NERRS:marabwq:1,2015-01-12T03:45:00Z,27.9798,-97.0287,8.0,1111122 
NERRS,ioos:station:NOAA.NERRS:marabwq:1,2015-01-12T04:45:00Z,27.9798,-97.0287,8.0,1111122 
NERRS,ioos:station:NOAA.NERRS:marabwq:1,2015-01-12T05:45:00Z,27.9798,-97.0287,7.0,1111122 
NERRS,ioos:station:NOAA.NERRS:marabwq:1,2015-01-12T06:45:00Z,27.9798,-97.0287,6.0,1111122 
NERRS,ioos:station:NOAA.NERRS:marabwq:1,2015-01-12T07:45:00Z,27.9798,-97.0287,5.0,1111122 
NERRS,ioos:station:NOAA.NERRS:marabwq:1,2015-01-12T09:45:00Z,27.9798,-97.0287,7.0,1111122 
NERRS,ioos:station:NOAA.NERRS:marabwq:1,2015-01-12T10:45:00Z,27.9798,-97.0287,6.0,1111122 
NERRS,ioos:station:NOAA.NERRS:marabwq:1,2015-01-12T11:45:00Z,27.9798,-97.0287,6.0,1111122 
NERRS,ioos:station:NOAA.NERRS:marabwq:1,2015-01-12T12:45:00Z,27.9798,-97.0287,7.0,1111122 
NERRS,ioos:station:NOAA.NERRS:marabwq:1,2015-01-12T13:45:00Z,27.9798,-97.0287,5.0,1111122 
NERRS,ioos:station:NOAA.NERRS:marabwq:1,2015-01-12T14:45:00Z,27.9798,-97.0287,8.0,1111122 
NERRS,ioos:station:NOAA.NERRS:marabwq:1,2015-01-12T15:45:00Z,27.9798,-97.0287,5.0,1111122 
NERRS,ioos:station:NOAA.NERRS:marabwq:1,2015-01-12T17:45:00Z,27.9798,-97.0287,5.0,1111122 
NERRS,ioos:station:NOAA.NERRS:marabwq:1,2015-01-12T18:45:00Z,27.9798,-97.0287,4.0,1111122 
NERRS,ioos:station:NOAA.NERRS:marabwq:1,2015-01-12T19:45:00Z,27.9798,-97.0287,4.0,1111122 
NERRS,ioos:station:NOAA.NERRS:marabwq:1,2015-01-12T21:45:00Z,27.9798,-97.0287,5.0,1111122 
NERRS,ioos:station:NOAA.NERRS:marabwq:1,2015-01-12T22:45:00Z,27.9798,-97.0287,11.0,1111122 
NERRS,ioos:station:NOAA.NERRS:marabwq:1,2015-01-12T23:45:00Z,27.9798,-97.0287,24.0,1111122 
NERRS,ioos:station:NOAA.NERRS:marabwq:1,2015-01-13T00:45:00Z,27.9798,-97.0287,14.0,1111122 
NERRS,ioos:station:NOAA.NERRS:marabwq:1,2015-01-13T01:45:00Z,27.9798,-97.0287,43.0,1111122 
NERRS,ioos:station:NOAA.NERRS:marabwq:1,2015-01-13T02:45:00Z,27.9798,-97.0287,72.0,1111122 
NERRS,ioos:station:NOAA.NERRS:marabwq:1,2015-01-13T03:45:00Z,27.9798,-97.0287,71.0,1111122 
NERRS,ioos:station:NOAA.NERRS:marabwq:1,2015-01-13T04:45:00Z,27.9798,-97.0287,65.0,1111122 
NERRS,ioos:station:NOAA.NERRS:marabwq:1,2015-01-13T05:45:00Z,27.9798,-97.0287,77.0,1111122 
NERRS,ioos:station:NOAA.NERRS:marabwq:1,2015-01-13T07:45:00Z,27.9798,-97.0287,103.0,1111122 
NERRS,ioos:station:NOAA.NERRS:marabwq:1,2015-01-13T08:45:00Z,27.9798,-97.0287,92.0,1111122 
NERRS,ioos:station:NOAA.NERRS:marabwq:1,2015-01-13T09:45:00Z,27.9798,-97.0287,86.0,1111122 
NERRS,ioos:station:NOAA.NERRS:marabwq:1,2015-01-13T10:45:00Z,27.9798,-97.0287,63.0,1111122 
NERRS,ioos:station:NOAA.NERRS:marabwq:1,2015-01-13T11:45:00Z,27.9798,-97.0287,59.0,1111122 
NERRS,ioos:station:NOAA.NERRS:marabwq:1,2015-01-13T12:45:00Z,27.9798,-97.0287,68.0,1111122 
NERRS,ioos:station:NOAA.NERRS:marabwq:1,2015-01-13T13:45:00Z,27.9798,-97.0287,62.0,1111122 
NERRS,ioos:station:NOAA.NERRS:marabwq:1,2015-01-13T14:45:00Z,27.9798,-97.0287,56.0,1111122 
NERRS,ioos:station:NOAA.NERRS:marabwq:1,2015-01-13T15:45:00Z,27.9798,-97.0287,52.0,1111122 
NERRS,ioos:station:NOAA.NERRS:marabwq:1,2015-01-13T16:45:00Z,27.9798,-97.0287,59.0,1111122 
NERRS,ioos:station:NOAA.NERRS:marabwq:1,2015-01-13T17:45:00Z,27.9798,-97.0287,51.0,1111122 
NERRS,ioos:station:NOAA.NERRS:marabwq:1,2015-01-13T18:45:00Z,27.9798,-97.0287,51.0,1111122 
NERRS,ioos:station:NOAA.NERRS:marabwq:1,2015-01-13T20:45:00Z,27.9798,-97.0287,49.0,1111122 
NERRS,ioos:station:NOAA.NERRS:marabwq:1,2015-01-13T21:45:00Z,27.9798,-97.0287,45.0,1111122 
NERRS,ioos:station:NOAA.NERRS:marabwq:1,2015-01-13T22:45:00Z,27.9798,-97.0287,38.0,1111122 
NERRS,ioos:station:NOAA.NERRS:marabwq:1,2015-01-14T00:45:00Z,27.9798,-97.0287,38.0,1111122 
NERRS,ioos:station:NOAA.NERRS:marabwq:1,2015-01-14T01:45:00Z,27.9798,-97.0287,42.0,1111122 
NERRS,ioos:station:NOAA.NERRS:marabwq:1,2015-01-14T02:45:00Z,27.9798,-97.0287,43.0,1111122 
NERRS,ioos:station:NOAA.NERRS:marabwq:1,2015-01-14T03:45:00Z,27.9798,-97.0287,43.0,1111122 
NERRS,ioos:station:NOAA.NERRS:marabwq:1,2015-01-14T04:45:00Z,27.9798,-97.0287,36.0,1111122 
NERRS,ioos:station:NOAA.NERRS:marabwq:1,2015-01-14T05:45:00Z,27.9798,-97.0287,29.0,1111122 
NERRS,ioos:station:NOAA.NERRS:marabwq:1,2015-01-14T06:45:00Z,27.9798,-97.0287,23.0,1111122 
NERRS,ioos:station:NOAA.NERRS:marabwq:1,2015-01-14T07:45:00Z,27.9798,-97.0287,23.0,1111122 
NERRS,ioos:station:NOAA.NERRS:marabwq:1,2015-01-14T08:45:00Z,27.9798,-97.0287,25.0,1111122 
NERRS,ioos:station:NOAA.NERRS:marabwq:1,2015-01-14T09:45:00Z,27.9798,-97.0287,28.0,1111122 